(27747) = 1990 YW = 2000 OD37

Discovered at Palomar on 1990-12-18 by E. F. Helin.

Orbit

Orbit type: Main Belt

Note: WebGL enabled browser required.

epoch2024-03-31.0
epoch JD2460400.5
perihelion date2018-10-07.30135
perihelion JD2458398.80135
argument of perihelion (°)227.38438
ascending node (°)202.15186
inclination (°)12.73521
eccentricity0.2426320
perihelion distance (AU)2.3810340
Tisserand w.r.t. Jupiter3.1
ΔV w.r.t. Earth (km/sec)10.4
semimajor axis (AU)3.1438272
mean anomaly (°)353.92769
mean daily motion (°/day)0.17681370
aphelion distance (AU)3.907
period (years)5.57
P-vector [x]0.35644111
P-vector [y]0.90872985
P-vector [z]0.21716306
Q-vector [x]-0.93061297
Q-vector [y]0.36598283
Q-vector [z]-0.00400990
absolute magnitude13.5
phase slope0.15
uncertainty0
referenceMPEC 2024-E133
observations used3076
oppositions23
arc length (days)15197
first opposition used1982
last opposition used2024
residual rms (arc-secs)0.52
perturbers coarse indicatorM-v
perturbers precise indicator003Ek
first observation date used1982-07-21.0
last observation date used2024-02-28.0
computer nameMPCLINUX
JD of orbit computation2456937.368574
perihelion JD uncertainty (days)6.0513E-05
argument of perihelion uncertainty (°)2.0112E-05
ascending node uncertainty (°)1.5852E-05
inclination uncertainty (°)6.0887E-06
eccentricity uncertainty 4.0126E-08
perihelion distance uncertainty (AU)1.2771E-07
Minimum Orbit Intersection Distances (in AU)
for orbit epoch: 2460400.5, reference: E2024-ED3
Mercury2.07898
Venus1.67076
Earth1.41505
Mars0.9233
Jupiter1.57974
Saturn6.11692
Uranus14.9925
Neptune26.6932

Observations

3419 total observations over interval: 1982 07 21.35804 – 2024 02 28.269967
These data are available for download (format description).

Date (UT) J2000 RA J2000 Dec Magn Location Ref
1982 07 21.35804 15 55 09.40 -08 37 35.3   260 – Siding Spring Observatory-DSS MPS 35238
1982 07 21.39971 15 55 09.06 -08 37 38.7   260 – Siding Spring Observatory-DSS MPS 35238
1982 08 09.36295 15 56 22.69 -09 13 26.0   260 – Siding Spring Observatory-DSS MPS 35238
1982 08 09.40462 15 56 23.15 -09 13 31.9   260 – Siding Spring Observatory-DSS MPS 35238
1990 11 20.61205 04 46 54.60 +07 36 23.3 17 V 413 – Siding Spring Observatory MPC 17703
1990 11 20.66413 04 46 52.43 +07 36 01.3   413 – Siding Spring Observatory MPC 17703
1990 11 22.31944 04 45 40.81 +07 23 26.6   261 – Palomar Mountain-DSS MPS 35238
1990 11 22.37500 04 45 38.23 +07 23 01.7   261 – Palomar Mountain-DSS MPS 35238
1990 12 18.24132 04 26 10.19 +05 08 01.9 16.5   675 – Palomar Mountain MPC 17548
1990 12 18.26042 04 26 09.41 +05 07 58.7   675 – Palomar Mountain MPC 17548
1990 12 19.22569 04 25 32.48 +05 05 34.4   675 – Palomar Mountain MPC 17548
1990 12 19.24965 04 25 31.52 +05 05 32.5   675 – Palomar Mountain MPC 17548
1997 03 02.17292 08 05 35.59 +03 02 50.1   261 – Palomar Mountain-DSS MPS 35238
1997 03 02.20417 08 05 35.09 +03 03 03.9   261 – Palomar Mountain-DSS MPS 35238
1998 03 29.29780 13 56 56.69 -11 07 41.2 19.0   704 – Lincoln Laboratory ETS, New Mexico MPS 17325
1998 03 29.31802 13 56 55.96 -11 07 35.8 18.9   704 – Lincoln Laboratory ETS, New Mexico MPS 17325
1998 03 29.33834 13 56 55.19 -11 07 27.4 18.8   704 – Lincoln Laboratory ETS, New Mexico MPS 17325
1998 03 29.35865 13 56 54.44 -11 07 19.1 18.8   704 – Lincoln Laboratory ETS, New Mexico MPS 17325
1998 03 29.37890 13 56 53.59 -11 07 12.8 19.3   704 – Lincoln Laboratory ETS, New Mexico MPS 17325
1998 04 22.24592 13 40 43.61 -08 33 48.3 18.4   704 – Lincoln Laboratory ETS, New Mexico MPS 17325
1998 04 22.26483 13 40 42.71 -08 33 42.4 18.4   704 – Lincoln Laboratory ETS, New Mexico MPS 17325
1998 04 22.28362 13 40 41.96 -08 33 33.4 18.9   704 – Lincoln Laboratory ETS, New Mexico MPS 17325
1998 04 22.30246 13 40 41.13 -08 33 27.7 18.1   704 – Lincoln Laboratory ETS, New Mexico MPS 17325
1998 04 22.32161 13 40 40.36 -08 33 19.8 18.1   704 – Lincoln Laboratory ETS, New Mexico MPS 17325
2000 06 25.54837 20 48 50.58 -00 45 29.0 20.0   608 – Haleakala-AMOS MPS 17875
2000 06 25.55863 20 48 50.27 -00 45 28.7 20.0   608 – Haleakala-AMOS MPS 17875
2000 06 25.56950 20 48 50.03 -00 45 28.1 20.2   608 – Haleakala-AMOS MPS 17875
2000 07 30.29778 20 27 05.55 -01 18 07.2 18.3   704 – Lincoln Laboratory ETS, New Mexico MPS 17875
2000 07 30.31230 20 27 04.85 -01 18 08.9 18.7   704 – Lincoln Laboratory ETS, New Mexico MPS 17875
2000 07 30.32585 20 27 04.24 -01 18 13.2 18.9   704 – Lincoln Laboratory ETS, New Mexico MPS 17875
2000 07 30.33940 20 27 03.59 -01 18 16.0 18.8   704 – Lincoln Laboratory ETS, New Mexico MPS 17875
2000 08 03.23423 20 24 09.08 -01 32 02.0 18.7   704 – Lincoln Laboratory ETS, New Mexico MPS 17875
2000 08 03.24853 20 24 08.44 -01 32 05.4 18.6   704 – Lincoln Laboratory ETS, New Mexico MPS 17875
2000 08 03.26272 20 24 07.86 -01 32 07.2 18.8   704 – Lincoln Laboratory ETS, New Mexico MPS 17875
2000 08 03.29122 20 24 06.50 -01 32 15.1 18.6   704 – Lincoln Laboratory ETS, New Mexico MPS 17875
2001 07 28.40252 02 31 05.20 +16 02 39.2 18.0 R 699 – Lowell Observatory-LONEOS MPS 32092
2001 07 28.42448 02 31 06.76 +16 02 42.5   699 – Lowell Observatory-LONEOS MPS 32092
2001 07 28.44648 02 31 08.30 +16 02 46.6   699 – Lowell Observatory-LONEOS MPS 32092
2001 07 28.46855 02 31 09.89 +16 02 49.1   699 – Lowell Observatory-LONEOS MPS 32092
2001 08 16.39614 02 51 44.01 +16 26 59.6 18.5   704 – Lincoln Laboratory ETS, New Mexico MPS 32717
2001 08 16.40809 02 51 44.69 +16 26 59.2 18.8   704 – Lincoln Laboratory ETS, New Mexico MPS 32717
2001 08 16.43196 02 51 46.04 +16 26 59.6 18.5   704 – Lincoln Laboratory ETS, New Mexico MPS 32717
2001 08 16.44401 02 51 46.74 +16 26 59.4 18.8   704 – Lincoln Laboratory ETS, New Mexico MPS 32717
2001 08 18.40706 02 53 37.68 +16 26 48.5 17.4   704 – Lincoln Laboratory ETS, New Mexico MPS 33093
2001 08 18.41964 02 53 38.30 +16 26 48.4 18.2   704 – Lincoln Laboratory ETS, New Mexico MPS 33093
2001 08 18.43229 02 53 39.02 +16 26 48.7 17.5   704 – Lincoln Laboratory ETS, New Mexico MPS 33093
2001 08 18.44488 02 53 39.67 +16 26 49.2 17.3   704 – Lincoln Laboratory ETS, New Mexico MPS 33093
2001 08 22.38539 02 57 10.63 +16 24 49.2 18.1   704 – Lincoln Laboratory ETS, New Mexico MPS 33093
2001 08 22.40271 02 57 11.51 +16 24 48.5 18.5   704 – Lincoln Laboratory ETS, New Mexico MPS 33093
2001 08 22.41495 02 57 12.15 +16 24 47.3 18.3   704 – Lincoln Laboratory ETS, New Mexico MPS 33094
2001 08 22.42713 02 57 12.73 +16 24 46.9 18.6   704 – Lincoln Laboratory ETS, New Mexico MPS 33094
2001 08 22.43978 02 57 13.38 +16 24 46.5 18.3   704 – Lincoln Laboratory ETS, New Mexico MPS 33094
2001 08 25.40570 02 59 41.20 +16 21 45.8 17.8 R 699 – Lowell Observatory-LONEOS MPS 33094
2001 08 25.42215 02 59 41.97 +16 21 44.8   699 – Lowell Observatory-LONEOS MPS 33094
2001 08 25.43860 02 59 42.77 +16 21 43.8   699 – Lowell Observatory-LONEOS MPS 33094
2001 08 25.45511 02 59 43.52 +16 21 42.3   699 – Lowell Observatory-LONEOS MPS 33094
2001 09 03.44881 03 06 09.68 +16 04 28.0 17.7   644 – Palomar Mountain/NEAT MPS 35238
2001 09 03.47003 03 06 10.44 +16 04 24.7 17.7   644 – Palomar Mountain/NEAT MPS 35239
2001 09 03.49127 03 06 11.19 +16 04 21.3 17.7   644 – Palomar Mountain/NEAT MPS 35239
2001 09 10.39511 03 09 57.75 +15 42 29.5 17.9   704 – Lincoln Laboratory ETS, New Mexico MPS 35239
2001 09 10.40891 03 09 58.12 +15 42 26.2 18.3   704 – Lincoln Laboratory ETS, New Mexico MPS 35239
2001 09 10.42254 03 09 58.50 +15 42 23.3 18.4   704 – Lincoln Laboratory ETS, New Mexico MPS 35239
2001 09 10.43605 03 09 58.85 +15 42 20.1 18.2   704 – Lincoln Laboratory ETS, New Mexico MPS 35239
2001 09 10.44958 03 09 59.24 +15 42 16.9 18.2   704 – Lincoln Laboratory ETS, New Mexico MPS 35239
2001 09 16.38546 03 12 19.67 +15 17 13.3 17.2   644 – Palomar Mountain/NEAT MPS 37282
2001 09 16.40662 03 12 20.04 +15 17 07.3 17.3   644 – Palomar Mountain/NEAT MPS 37282
2001 09 16.42807 03 12 20.42 +15 17 01.3 17.1   644 – Palomar Mountain/NEAT MPS 37282
2001 09 17.36075 03 12 37.55 +15 12 33.5 18.3   704 – Lincoln Laboratory ETS, New Mexico MPS 37282
2001 09 17.37481 03 12 37.84 +15 12 29.6 18.5   704 – Lincoln Laboratory ETS, New Mexico MPS 37282
2001 09 17.39041 03 12 38.07 +15 12 25.4 18.4   704 – Lincoln Laboratory ETS, New Mexico MPS 37282
2001 09 17.40486 03 12 38.33 +15 12 20.5 18.2   704 – Lincoln Laboratory ETS, New Mexico MPS 37282
2001 09 19.36499 03 13 10.03 +15 02 26.1 17.4 R 699 – Lowell Observatory-LONEOS MPS 37282
2001 09 19.39482 03 13 10.43 +15 02 16.6   699 – Lowell Observatory-LONEOS MPS 37282
2001 09 19.40165 03 13 10.48 +15 02 15.5 17.4   704 – Lincoln Laboratory ETS, New Mexico MPS 37282
2001 09 19.41591 03 13 10.68 +15 02 10.9 18.3   704 – Lincoln Laboratory ETS, New Mexico MPS 37282
2001 09 19.42476 03 13 10.79 +15 02 07.3   699 – Lowell Observatory-LONEOS MPS 37282
2001 09 19.43021 03 13 10.86 +15 02 06.4 18.7   704 – Lincoln Laboratory ETS, New Mexico MPS 37282
2001 09 19.44448 03 13 11.06 +15 02 01.8 19.0   704 – Lincoln Laboratory ETS, New Mexico MPS 37282
2001 09 19.45479 03 13 11.18 +15 01 57.8   699 – Lowell Observatory-LONEOS MPS 37282
2001 09 19.45874 03 13 11.22 +15 01 56.2 17.9   704 – Lincoln Laboratory ETS, New Mexico MPS 37282
2001 09 21.44576 03 13 36.93 +14 51 13.8 17.0   644 – Palomar Mountain/NEAT MPS 37282
2001 09 21.47338 03 13 37.19 +14 51 04.6 17.1   644 – Palomar Mountain/NEAT MPS 37282
2001 09 21.49579 03 13 37.41 +14 50 57.1 17.0   644 – Palomar Mountain/NEAT MPS 37282
2001 09 26.40197 03 14 13.77 +14 21 40.8 17.9   704 – Lincoln Laboratory ETS, New Mexico MPS 37282
2001 09 26.41647 03 14 13.81 +14 21 34.7 18.0   704 – Lincoln Laboratory ETS, New Mexico MPS 37282
2001 09 26.43103 03 14 13.83 +14 21 29.6 18.4   704 – Lincoln Laboratory ETS, New Mexico MPS 37282
2001 09 26.44557 03 14 13.84 +14 21 23.3 19.0   704 – Lincoln Laboratory ETS, New Mexico MPS 37282
2001 09 26.46008 03 14 13.87 +14 21 17.2 17.9   704 – Lincoln Laboratory ETS, New Mexico MPS 37282
